Allentown, PA

5:24 AM EDT on April 30, 2017 (GMT -0400)
Lehigh Valley International

Weather History for KABE - September, 2013

Change the Weather History Date:

Thursday, September 26, 2013

  Actual Average Record
Temperature  
Mean Temperature 59 °F 60 °F  
Max Temperature 74 °F 71 °F 90 °F (1970)
Min Temperature 43 °F 49 °F 35 °F (1967)
Degree Days  
Heating Degree Days 6 6  
Month to date heating degree days 105 76  
Since 1 July heating degree days 109 87  
Cooling Degree Days 0 1  
Month to date cooling degree days 78 68  
Year to date cooling degree days 903 747  
Growing Degree Days 8 (Base 50)    
Moisture  
Dew Point 51 °F    
Average Humidity 71    
Maximum Humidity 93    
Minimum Humidity 49    
Precipitation  
Precipitation 0.00 in 0.17 in 2.00 in (1985)
Month to date precipitation 2.08 3.91  
Year to date precipitation 36.92 33.68  
Snow  
Snow 0.00 in 0.00 in 0.00 in (2002)
Month to date snowfall 0.0 0.0  
Since 1 July snowfall 0.0 0.0  
Since 1 September snowfall 0.0 0.0  
Snow Depth 0.00 in    
Sea Level Pressure  
Sea Level Pressure 30.02 in    
Wind  
Wind Speed 4 mph (ENE)    
Max Wind Speed 13 mph    
Max Gust Speed 15 mph    
Visibility 10 miles    
Events      
T = Trace of Precipitation, MM = Missing Value Source: NWS Daily Summary

Daily Weather History Graph

Daily Weather History Graph

Search for Another Location

Airport or City:

Trip Planner

Search our weather history database for the weather conditions in past years. The results will help you decide how hot, cold, wet, or windy it might be!

Date:

Astronomy

Sep. 26, 2013 Rise Set
Actual Time 6:53 AM EDT 6:51 PM EDT
Civil Twilight 6:26 AM EDT 7:19 PM EDT
Nautical Twilight 5:54 AM EDT 7:50 PM EDT
Astronomical Twilight 5:22 AM EDT 8:22 PM EDT
Moon 11:46 PM EDT (9/26) 1:45 PM EDT (9/26)
Length of Visible Light 12h 52m
Length of Day
11h 58m
Waning Gibbous, 55% of the Moon is Illuminated
Sep 26
Waning Gibbous
Sep 26
Last Quarter
Oct 4
New
Oct 11
First Quarter
Oct 18
Full

Hourly Weather History & Observations

Time (EDT) Temp. Dew Point Humidity Pressure Visibility Wind Dir Wind Speed Gust Speed Precip Events Conditions
12:51 AM 48.9 °F 46.9 °F 93% 29.96 in 10.0 mi Calm Calm - N/A   Clear
1:51 AM 48.0 °F 46.0 °F 93% 29.96 in 10.0 mi NNW 3.5 mph - N/A   Clear
2:51 AM 48.0 °F 46.0 °F 93% 29.96 in 10.0 mi Calm Calm - N/A   Clear
3:51 AM 46.9 °F 45.0 °F 93% 29.96 in 10.0 mi Calm Calm - N/A   Clear
4:51 AM 46.0 °F 44.1 °F 93% 29.97 in 10.0 mi Calm Calm - N/A   Clear
5:51 AM 45.0 °F 43.0 °F 93% 29.99 in 10.0 mi Calm Calm - N/A   Clear
6:51 AM 45.0 °F 42.1 °F 90% 30.01 in 10.0 mi Calm Calm - N/A   Clear
7:51 AM 50.0 °F 46.9 °F 89% 30.02 in 10.0 mi Calm Calm - N/A   Clear
8:51 AM 55.9 °F 51.1 °F 84% 30.03 in 10.0 mi ENE 5.8 mph - N/A   Clear
9:51 AM 60.1 °F 53.1 °F 78% 30.04 in 10.0 mi NE 10.4 mph - N/A   Clear
10:51 AM 62.1 °F 55.0 °F 78% 30.05 in 10.0 mi NE 10.4 mph - N/A   Partly Cloudy
11:51 AM 66.0 °F 55.0 °F 68% 30.05 in 10.0 mi NE 6.9 mph - N/A   Clear
12:51 PM 69.1 °F 55.0 °F 61% 30.04 in 10.0 mi Variable 6.9 mph - N/A   Partly Cloudy
1:51 PM 70.0 °F 54.0 °F 57% 30.02 in 10.0 mi ENE 4.6 mph - N/A   Clear
2:51 PM 73.0 °F 53.1 °F 49% 30.01 in 10.0 mi Calm Calm - N/A   Scattered Clouds
3:51 PM 71.1 °F 53.1 °F 53% 30.01 in 10.0 mi East 6.9 mph - N/A   Overcast
4:51 PM 71.1 °F 52.0 °F 51% 30.02 in 10.0 mi East 3.5 mph - N/A   Mostly Cloudy
5:51 PM 70.0 °F 53.1 °F 55% 30.03 in 10.0 mi ENE 6.9 mph - N/A   Overcast
6:51 PM 68.0 °F 52.0 °F 56% 30.04 in 10.0 mi East 5.8 mph - N/A   Overcast
7:51 PM 64.0 °F 54.0 °F 70% 30.06 in 10.0 mi ENE 3.5 mph - N/A   Overcast
8:51 PM 66.9 °F 55.0 °F 66% 30.07 in 10.0 mi ESE 4.6 mph - N/A   Mostly Cloudy
9:51 PM 64.0 °F 55.9 °F 75% 30.08 in 10.0 mi East 5.8 mph - N/A   Overcast
10:51 PM 62.1 °F 55.0 °F 78% 30.10 in 10.0 mi East 6.9 mph - N/A   Partly Cloudy
11:51 PM 59.0 °F 55.0 °F 87% 30.11 in 10.0 mi ENE 4.6 mph - N/A   Overcast